Content
SEND FEEDBACK

Daily
Averages
Monthly
Summary
Turkey

KILIS, TURKEY


Home > Middle East > Turkey
Elevation: 2093 feet     Latitude: 36 06N     Longitude: 037 24E

WEATHER
 
SELECT A DAY
Number of Records: 211,728;   Date Range: 7/1/96 - 9/29/14
 
SHARE

PRINT THIS DATA

[ ← Previous Day ]
WEATHER ALMANAC - FEBRUARY 4, 2013
[ Next Day → ]
[ °C ]   °F
Weather ElementAverageHighLow
Temperature45.8 °F55.4 °F (1:50 pm)37.4 °F (8:50 pm)
Dewpoint41.3 °F44.6 °F (1:20 pm)37.4 °F (8:50 pm)
Humidity85 %100 % (6:50 pm)54 % (2:00 pm)
Barometer30.30 in30.40 in (8:00 am)30.24 in (2:50 pm)
Wind Speed4.1 mph9.2 mph (8:50 am)
Weather ElementAverage
Visibility4.1 mi
Wind DirectionSSW (188.8 °)

Weather ElementTotal
Precipitation---
Heating Degree Days18.6 (Base 65)
Averaged from 49 records on February 4, 2013
WEATHER CONDITIONS BREAKOUT
WIND DIRECTION BREAKOUT
WEATHER BY HOUR - FEBRUARY 4, 2013
[ °C ]   °F
Local TimeTemperatureDewpointHumidityBarometerVisibilityWind DirectionWind SpeedGust SpeedPrecipitationEventsConditions
12:50 AM42.8 °F39.2 °F87 %30.36 in2.5 miNorth (350°)4.6 mphMostly Cloudy
1:20 AM42.8 °F39.2 °F87 %30.36 in2.5 miNorth (360°)4.6 mphMostly Cloudy
1:50 AM42.8 °F41.0 °F93 %30.36 in2.5 miNorth (360°)4.6 mphMostly Cloudy
2:00 AM42.0 °F40.0 °F91 %30.39 in2.0 miNorth4.6 mphMist
2:20 AM42.8 °F41.0 °F93 %30.33 in2.5 miNorth (350°)4.6 mphMostly Cloudy
2:50 AM42.8 °F41.0 °F93 %30.33 in2.5 miNorth (350°)3.5 mphMostly Cloudy
3:20 AM42.8 °F41.0 °F93 %30.33 in2.5 miNorth (360°)4.6 mphMostly Cloudy
3:50 AM42.8 °F41.0 °F93 %30.33 in2.5 miNorth (350°)4.6 mphMostly Cloudy
4:20 AM42.8 °F41.0 °F93 %30.33 in2.5 miNorth (350°)4.6 mphMostly Cloudy
4:50 AM42.8 °F41.0 °F93 %30.33 in2.5 miNorth (350°)2.3 mphMostly Cloudy
5:20 AM42.8 °F41.0 °F93 %30.33 in2.5 miNorth (350°)4.6 mphMostly Cloudy
5:50 AM42.8 °F39.2 °F87 %30.33 in2.5 miNorth (360°)3.5 mphMostly Cloudy
6:20 AM42.8 °F39.2 °F87 %30.33 in2.5 miNorth (350°)3.5 mphMostly Cloudy
6:50 AM42.8 °F41.0 °F93 %30.33 in2.5 miNorth (360°)4.6 mphMostly Cloudy
7:20 AM42.8 °F41.0 °F93 %30.33 in2.5 miNNW (340°)5.8 mphMostly Cloudy
7:50 AM44.6 °F41.0 °F87 %30.36 in2.5 miNorth (350°)6.9 mphMostly Cloudy
8:00 AM44.0 °F41.0 °F85 %30.40 in2.0 miNorth (350°)6.9 mphMist
8:20 AM44.6 °F41.0 °F87 %30.33 in2.5 miNorth (350°)8.1 mphMostly Cloudy
8:50 AM46.4 °F41.0 °F81 %30.33 inNorth (10°)9.2 mphMostly Cloudy
9:20 AM48.2 °F42.8 °F82 %30.33 in2.5 miNorth (10°)9.2 mphMostly Cloudy
9:50 AM48.2 °F42.8 °F82 %30.33 in6.2 miNorth (350°)8.1 mphScattered Clouds
10:20 AM50.0 °F42.8 °F76 %30.33 in6.2 miNorth (360°)5.8 mphMostly Cloudy
10:50 AM51.8 °F42.8 °F71 %30.33 in6.2 miVariable2.3 mphMostly Cloudy
11:20 AM53.6 °F42.8 °F67 %30.33 in6.2 miVariable1.2 mphMostly Cloudy
12:50 PM53.6 °F42.8 °F67 %30.27 in6.2 miVariable3.5 mphMostly Cloudy
1:20 PM53.6 °F44.6 °F72 %30.27 in6.2 miEast (90°)5.8 mphMostly Cloudy
1:50 PM55.4 °F42.8 °F63 %30.27 in6.2 miSSE (150°)4.6 mphMostly Cloudy
2:00 PM55.0 °F43.0 °F54 %30.29 in6.0 miSSE (150°)4.6 mphPartly Cloudy
2:20 PM55.4 °F44.6 °F67 %30.27 in6.2 miESE (120°)6.9 mphMostly Cloudy
2:50 PM55.4 °F44.6 °F67 %30.24 in6.2 miSE (130°)6.9 mphMostly Cloudy
3:20 PM55.4 °F42.8 °F63 %30.27 in6.2 miESE (110°)6.9 mphMostly Cloudy
3:50 PM55.4 °F42.8 °F63 %30.27 in6.2 miSE (130°)6.9 mphMostly Cloudy
4:20 PM53.6 °F42.8 °F67 %30.24 in6.2 miESE (110°)5.8 mphMostly Cloudy
4:50 PM51.8 °F42.8 °F71 %30.24 in6.2 miEast (100°)4.6 mphMostly Cloudy
5:20 PM50.0 °F42.8 °F76 %30.27 in6.2 miSE (140°)3.5 mphMostly Cloudy
5:50 PM48.2 °F44.6 °F87 %30.27 in6.2 miSouth (170°)2.3 mphMostly Cloudy
6:20 PM46.4 °F44.6 °F93 %30.27 in6.2 miCalmMostly Cloudy
6:50 PM44.6 °F44.6 °F100 %30.27 in6.2 miCalmScattered Clouds
7:20 PM42.8 °F41.0 °F93 %30.27 in6.2 miNW (320°)1.2 mphScattered Clouds
7:50 PM42.8 °F41.0 °F93 %30.27 in6.2 miCalmScattered Clouds
8:00 PM42.0 °F41.0 °F94 %30.32 in6.0 miCalmPartly Cloudy
8:20 PM41.0 °F39.2 °F93 %30.27 in6.2 miVariable1.2 mphScattered Clouds
8:50 PM37.4 °F37.4 °F100 %30.27 in3.7 miVariable1.2 mphScattered Clouds
9:20 PM39.2 °F39.2 °F100 %30.27 in0.2 miCalmFogFog
9:50 PM39.2 °F37.4 °F93 %30.27 in0.2 miVariable1.2 mphFogFog
10:20 PM39.2 °F39.2 °F100 %30.24 in0.2 miNorth (350°)4.6 mphFogFog
10:50 PM37.4 °F37.4 °F100 %30.24 in1.9 miWest (270°)4.6 mphScattered Clouds
11:20 PM37.4 °F37.4 °F100 %30.24 inVariable1.2 mphScattered Clouds
11:50 PM39.2 °F39.2 °F100 %30.24 in2.5 miCalmScattered Clouds
Hourly data recorded from LTAJ, located miles away from Kilis, Turkey







STORIES FROM OUR PARTNERS